Location: Mississauga
(43.5802°N, 79.6166°W)
Time: 05:35:32
(UTC-04:00)

Cosmos 1437 Rocket - Visible Passes

Search period start: 29 May 2016 00:00
Search period end: 08 June 2016 00:00
Orbit: 509 x 568 km, 81.1° (Epoch: 28 May)

Date Brightness Start Highest point End Pass type
(mag) Time Alt. Az. Time Alt. Az. Time Alt. Az.
29 May 3.0 01:57:29 10° NNW 02:00:53 64° NNW 02:00:53 64° NNW visible
30 May 3.1 01:49:31 10° NNW 01:52:51 62° NNW 01:52:51 62° NNW visible
31 May 3.1 01:41:31 10° NNW 01:44:49 61° NNW 01:44:49 61° NNW visible
01 Jun 3.1 01:33:31 10° NNW 01:36:49 60° NNW 01:36:49 60° NNW visible
02 Jun 3.1 01:25:32 10° NNW 01:28:49 60° NNW 01:28:49 60° NNW visible
03 Jun 3.1 01:17:31 10° NNW 01:20:50 61° NW 01:20:50 61° NW visible
04 Jun 3.0 01:09:32 10° NNW 01:12:51 61° NW 01:12:51 61° NW visible
05 Jun 3.0 01:01:32 10° NNW 01:04:53 62° NW 01:04:53 62° NW visible
06 Jun 3.0 00:53:31 10° NNW 00:56:56 64° NW 00:56:56 64° NW visible
07 Jun 2.9 00:45:31 10° NNW 00:49:00 66° NW 00:49:00 66° NW visible
